Theta_e
295 295 296 296 297 298 299 300 301 305 307 311 314 315 317 318 319 319 320 321 322 322 322 322 323 323 323 323 322 321 320 320 321 320 321 320 319 317 319 318 319 319 319 320 321 321 322 324 325 324 324 323 323 322 321 321 321 320 320 320 318 318
294 295 295 296 296 296 296 295 295 300 305 307 310 312 313 312 314 315 317 319 320 321 321 321 322 322 322 322 321 321 321 321 321 320 320 320 316 318 319 318 318 318 317 318 320 322 323 324 324 324 324 323 323 322 320 320 320 319 319 318 318 318
293 293 293 292 290 289 290 292 295 296 297 303 306 309 310 311 313 314 316 316 317 317 318 319 320 320 321 320 320 320 320 321 318 320 320 316 318 317 316 316 317 317 317 318 318 321 322 323 323 323 323 322 321 321 321 319 319 318 318 316 315 314
293 292 288 287 288 289 290 290 290 291 294 298 301 303 307 308 309 311 313 313 315 316 317 317 316 318 318 318 319 318 320 320 319 319 316 316 317 315 316 316 317 316 316 317 318 319 321 322 323 322 321 320 319 319 319 318 316 316 316 316 315 312
292 290 289 290 291 291 290 289 291 292 291 291 293 297 301 300 304 303 306 309 310 312 313 313 313 313 313 315 316 316 317 318 317 314 315 314 314 312 315 316 316 316 315 316 316 317 318 320 320 321 320 319 319 317 315 315 314 314 313 310 308 308
287 287 290 292 291 290 290 290 289 290 290 291 291 293 294 293 296 297 300 304 307 308 307 309 308 307 308 310 313 313 314 313 312 310 312 314 313 313 312 314 315 314 314 315 315 315 317 318 318 319 319 320 318 318 317 314 314 314 314 314 312 310
289 291 291 292 291 289 288 289 290 291 292 290 292 293 291 293 292 294 297 298 302 300 303 304 304 306 307 308 309 309 308 308 309 309 311 311 311 312 310 309 311 313 313 314 315 315 316 317 317 318 317 317 318 318 317 316 314 314 314 313 310 304
289 288 289 290 290 291 290 290 291 291 291 292 291 293 290 290 287 290 292 293 296 298 297 299 298 302 304 304 304 305 304 304 302 306 305 307 311 308 308 309 309 310 312 313 315 315 316 316 316 316 317 316 316 316 316 316 314 312 311 310 309 306
291 292 290 291 290 289 290 290 292 290 290 291 289 288 288 288 288 288 290 291 293 295 296 297 299 300 300 300 300 298 298 299 300 300 304 301 304 306 305 305 308 308 311 312 313 313 314 314 314 315 315 314 312 310 309 306 305 304 304 303 303 301
291 290 291 290 290 289 289 289 289 290 290 291 290 288 288 290 289 289 290 292 292 294 295 296 297 298 299 299 299 299 298 299 299 300 301 299 302 303 304 305 306 307 308 311 312 313 312 313 313 312 311 310 311 309 308 308 307 305 303 298 298 296
293 292 291 291 287 288 288 288 288 287 288 288 289 288 289 289 288 291 292 293 293 294 294 295 295 296 296 295 297 297 297 297 297 296 296 297 300 302 304 304 306 306 307 308 309 310 310 311 311 310 309 309 309 308 307 306 304 302 299 296 292 291
291 291 290 289 289 289 289 289 289 289 290 290 290 289 290 287 288 293 293 294 294 294 294 295 295 297 296 297 297 296 294 293 292 292 293 294 295 296 297 299 302 303 305 305 304 303 304 305 305 302 300 301 307 305 303 300 296 295 293 293 292 290
291 290 290 291 291 290 291 291 291 289 289 290 290 291 291 289 290 293 294 295 295 295 295 295 295 294 295 297 294 293 293 293 292 291 292 293 292 293 293 295 299 297 299 301 300 297 298 299 300 299 299 300 300 304 303 301 296 294 293 292 292 291
291 291 292 292 292 291 290 291 291 289 291 291 291 291 291 290 292 294 295 295 295 295 295 295 294 293 293 292 293 292 292 291 292 293 292 291 292 291 291 293 296 295 294 297 296 297 297 298 296 299 298 298 299 298 297 294 293 292 292 291 291 290
292 292 293 292 293 292 292 292 291 291 293 292 292 290 292 291 293 295 295 295 295 294 294 293 293 293 291 291 291 290 290 290 291 291 291 292 291 289 292 294 293 293 291 293 294 294 293 292 295 297 297 297 297 297 294 291 291 291 291 291 291 290
296 294 293 294 294 294 294 290 292 294 292 290 288 291 292 293 294 295 295 294 294 294 293 293 293 292 291 289 288 288 289 290 292 291 290 290 288 291 291 289 290 290 290 291 292 291 290 291 292 295 295 295 295 295 294 292 291 291 291 291 291 289
300 299 292 291 293 293 292 290 291 291 289 289 290 291 292 293 295 295 295 293 293 293 292 292 292 292 291 290 289 289 289 290 289 289 289 290 290 291 291 291 290 290 289 289 289 289 290 290 292 294 294 295 295 295 294 291 291 290 290 289 289 289
299 300 298 297 293 293 292 294 292 290 291 289 291 290 291 294 295 295 294 293 293 292 292 291 291 290 290 290 290 289 289 288 289 289 287 288 288 288 288 288 288 289 289 288 289 289 289 288 292 293 293 294 295 294 290 290 290 289 288 288 288 288
300 300 298 296 294 293 293 293 292 291 290 288 289 289 291 292 293 293 293 293 293 292 291 291 290 290 289 289 289 289 289 288 287 287 287 288 288 288 288 288 287 288 288 288 288 289 288 287 290 292 293 294 294 292 289 289 288 288 288 287 287 287
298 297 295 294 293 293 294 292 292 291 290 290 289 289 290 291 292 293 293 293 292 291 291 290 290 289 289 288 289 289 289 288 288 288 288 289 288 288 288 287 287 287 287 288 288 289 288 287 288 291 292 293 293 290 288 288 288 287 287 286 285 285
297 296 292 290 291 291 291 291 291 291 291 290 289 289 290 291 292 292 292 292 291 291 290 290 290 289 289 288 288 288 288 287 288 287 287 288 288 287 287 287 287 286 286 287 287 287 288 287 287 290 291 292 292 290 288 288 287 286 285 285 284 284
293 293 293 292 292 293 291 291 291 290 292 291 290 289 290 291 292 293 291 290 290 290 290 290 289 289 289 288 288 287 288 287 287 287 287 287 288 287 287 287 287 287 286 286 286 287 287 287 287 287 291 292 292 290 288 288 287 286 285 285 284 283
295 296 296 297 296 294 291 290 291 291 291 291 290 289 291 292 292 289 289 290 290 290 290 290 289 289 288 289 288 288 287 287 287 287 287 287 287 287 287 287 286 286 286 285 286 286 286 287 287 287 290 291 291 291 289 287 288 287 286 285 284 284
294 293 293 293 294 293 291 290 290 291 292 291 290 291 292 292 289 288 289 289 290 290 289 289 289 289 289 288 288 287 287 287 287 287 287 287 287 287 286 286 286 286 285 285 285 285 286 286 286 287 288 290 291 290 290 287 286 286 286 285 284 283
295 294 294 295 293 293 290 290 290 291 291 291 292 293 291 288 288 288 289 289 289 289 288 288 288 288 289 288 287 287 287 287 287 287 287 287 287 286 286 286 286 285 285 284 285 285 285 285 286 286 287 289 290 290 290 289 287 288 286 285 283 282
295 296 295 294 293 291 289 290 290 290 290 292 293 289 287 287 288 288 288 288 288 288 288 288 288 288 288 287 287 287 287 286 286 286 287 287 287 287 286 286 286 286 285 284 284 284 284 285 285 285 286 288 289 290 290 289 288 288 284 283 282 281
294 295 295 295 293 291 289 289 290 290 290 292 289 288 287 288 288 288 288 288 288 288 288 288 288 288 287 287 287 287 287 286 286 286 286 286 287 287 287 286 286 286 286 285 284 284 284 284 285 285 286 286 287 289 290 289 288 288 287 282 277 279
292 292 293 294 292 290 289 289 290 290 292 290 289 288 287 287 287 287 287 287 287 288 287 287 287 287 287 287 288 288 288 287 286 287 286 287 287 287 287 286 286 286 286 285 285 284 283 284 284 284 285 286 286 287 288 288 287 286 285 282 280 282
291 291 291 292 293 290 289 288 289 291 292 288 287 287 287 287 287 287 287 287 287 288 287 288 288 287 287 287 287 288 287 287 287 287 286 287 287 287 287 286 286 286 286 285 285 284 283 283 283 284 284 285 286 286 286 286 285 284 283 282 282 283
291 291 291 292 293 291 289 288 288 289 289 287 287 287 287 287 287 287 287 287 288 288 288 288 287 287 287 287 287 287 287 287 287 287 287 287 287 287 287 286 286 286 286 286 285 283 282 282 283 283 284 285 285 285 285 285 284 283 282 281 281 281
291 291 290 292 293 291 289 288 288 288 287 287 287 287 287 287 287 287 287 287 288 288 288 288 288 288 288 287 287 288 288 287 287 288 288 287 288 289 288 287 287 287 287 287 285 283 282 282 282 283 286 285 286 285 284 284 283 283 282 281 282 280
290 290 290 291 292 290 288 287 287 286 286 286 286 287 287 287 287 287 287 287 288 288 288 288 288 288 288 287 287 286 286 285 287 287 288 287 286 287 288 288 288 287 287 287 286 286 285 284 284 285 286 286 286 286 286 285 285 284 282 283 283 280
289 289 289 290 290 289 287 287 286 285 285 286 286 287 287 287 287 287 287 287 288 288 288 288 288 288 288 287 287 286 285 285 285 286 286 287 286 286 286 286 287 287 287 287 286 285 286 286 286 286 286 286 286 286 286 286 285 285 284 284 280 277
288 288 289 290 289 288 286 286 284 284 284 286 286 287 287 287 288 287 288 288 288 287 287 288 288 287 287 287 286 286 285 285 283 282 283 284 285 285 285 286 285 286 287 287 285 284 283 285 286 286 286 286 286 286 286 286 285 285 284 284 282 275
290 289 288 288 287 286 286 286 284 283 284 286 286 287 287 287 287 288 288 288 288 287 287 287 287 287 287 286 286 285 285 285 284 282 280 280 284 284 285 285 285 286 286 286 285 285 284 284 285 286 285 285 286 286 286 286 285 285 285 284 277 271
288 287 287 287 286 286 285 285 284 283 285 286 287 287 287 287 287 288 288 288 288 287 287 287 287 287 287 287 286 286 285 286 286 285 282 280 279 280 281 284 285 285 285 285 285 285 285 285 285 285 285 285 285 286 286 285 284 285 285 282 274 272
287 286 285 285 284 283 283 284 283 282 284 286 286 287 287 287 287 287 284 283 285 288 287 287 287 287 287 287 286 285 285 285 285 284 282 281 281 281 280 279 280 283 284 283 283 284 285 285 285 285 285 285 285 285 285 285 281 281 281 280 272 272
285 285 283 282 282 282 282 283 281 281 283 285 286 287 287 287 287 287 287 286 285 287 287 287 287 287 287 286 286 286 285 284 282 282 281 281 280 280 278 276 277 275 278 283 283 284 284 284 285 285 285 285 285 285 285 280 279 279 280 279 276 273
Wind_Speed
9 9 10 8 8 8 7 7 5 6 6 7 9 12 13 13 11 11 11 12 11 11 13 15 14 14 14 14 13 10 10 12 12 12 13 9 8 7 8 8 8 9 8 9 9 8 10 10 11 10 10 10 10 10 11 11 11 11 12 11 11 10
9 10 10 9 9 7 6 5 4 6 8 7 8 9 7 6 8 9 11 12 11 11 10 11 12 12 13 12 11 11 12 13 12 12 10 11 6 9 9 8 9 8 8 8 9 10 10 10 11 11 11 10 11 11 10 9 10 11 11 10 10 11
9 9 8 6 3 3 3 4 6 6 5 7 8 10 9 9 10 9 11 9 10 10 12 12 11 12 11 11 11 11 12 12 11 10 10 5 9 8 7 9 9 9 9 9 10 11 10 10 10 10 10 10 11 12 12 11 12 13 12 10 10 10
8 7 4 3 3 4 5 4 4 5 6 7 6 6 7 8 8 9 9 8 9 11 12 11 8 10 9 10 11 11 12 11 11 10 7 9 9 7 8 9 9 9 9 10 11 11 11 11 12 11 10 10 10 10 10 10 11 11 11 12 14 13
6 5 5 5 5 4 3 3 4 5 5 5 5 6 8 6 6 5 6 7 8 10 9 8 8 8 8 10 10 11 11 11 9 7 9 9 8 7 9 10 10 10 10 10 11 11 11 12 11 11 11 12 12 11 8 9 10 11 10 9 7 6
5 4 5 5 4 5 4 4 4 4 4 5 5 7 7 5 5 5 6 6 8 8 7 9 8 8 8 10 10 11 10 9 7 7 8 9 8 10 9 9 10 10 10 11 11 10 10 10 10 10 11 12 12 13 12 10 10 10 11 11 11 12
6 6 5 5 5 4 4 4 5 5 5 4 6 6 5 6 6 7 7 7 8 7 8 8 7 9 10 10 8 9 8 8 8 8 10 9 9 9 8 8 7 9 9 10 10 10 10 10 10 10 10 9 9 11 12 11 11 13 13 12 9 5
3 4 6 5 5 5 5 5 5 6 5 7 6 6 5 6 4 5 6 6 7 8 8 8 7 9 9 9 8 8 7 7 6 6 6 7 9 7 7 8 7 8 9 9 9 9 10 9 10 11 11 11 11 11 11 12 12 11 11 10 9 9
7 8 6 6 6 6 6 5 6 6 6 7 6 5 5 5 4 3 4 4 5 6 8 8 8 7 7 7 7 5 4 5 5 5 6 5 6 7 7 6 7 7 8 9 8 9 9 9 9 10 10 9 8 7 6 5 5 4 4 4 4 3
7 7 9 7 8 5 5 6 6 6 6 8 6 5 5 5 5 5 5 5 6 7 7 7 5 6 6 5 5 5 5 5 5 6 5 4 6 6 6 7 8 7 7 8 8 8 8 8 8 8 8 8 9 9 9 9 8 8 7 5 2 3
11 10 7 7 5 6 7 6 7 6 6 6 5 4 6 5 5 6 6 6 8 8 6 5 5 4 5 5 5 5 5 5 5 5 5 5 5 6 6 6 7 7 7 6 6 7 6 8 8 7 8 8 8 7 6 5 5 7 7 5 4 4
9 8 6 6 7 7 7 7 8 8 8 8 6 6 6 5 6 7 7 8 9 7 6 6 5 6 5 5 5 4 4 4 4 4 4 4 4 5 5 5 5 6 6 6 6 5 4 5 4 6 10 9 8 6 5 4 3 3 4 5 5 4
8 7 7 9 9 10 9 9 7 6 7 8 7 8 6 7 7 7 8 10 7 6 5 6 6 5 6 5 4 4 4 4 3 3 3 3 3 3 4 4 5 5 5 5 5 4 4 4 3 5 6 8 10 7 6 7 5 5 5 4 4 5
10 10 11 11 11 9 8 8 8 5 10 9 9 7 6 7 8 9 8 7 5 6 7 6 6 6 5 5 5 5 4 4 3 3 4 3 3 4 3 4 5 5 4 5 4 5 5 5 7 9 7 6 5 4 3 3 5 5 5 4 5 5
12 13 12 9 10 10 11 10 6 9 12 11 9 6 7 9 9 8 8 7 7 7 7 6 6 6 5 5 4 4 4 4 5 5 4 5 4 4 5 5 4 5 4 4 4 4 4 4 3 4 5 7 8 8 6 3 4 5 5 5 6 7
10 10 11 10 10 11 10 6 10 12 8 5 5 8 8 9 9 9 9 7 8 7 6 6 6 6 5 4 4 4 5 5 6 5 5 4 4 5 4 4 4 3 3 4 4 4 3 3 4 5 7 7 8 10 8 6 6 6 6 7 7 7
14 14 8 8 12 11 9 7 9 8 5 7 8 8 8 9 9 8 8 8 7 6 7 7 7 6 6 5 5 5 5 5 4 5 5 5 5 5 5 5 4 4 3 3 3 3 3 4 6 7 8 9 10 10 8 5 6 6 5 6 6 8
17 18 16 13 9 9 8 11 8 7 10 5 7 7 7 8 9 9 7 8 9 9 8 8 7 6 6 7 7 7 6 5 5 6 4 3 3 2 3 2 3 4 4 4 4 4 4 3 6 8 9 10 11 12 7 6 6 6 5 6 6 7
16 17 14 12 10 9 10 11 7 8 7 6 8 7 7 7 9 10 10 10 9 9 8 8 8 7 7 7 8 8 7 6 5 4 3 4 4 4 4 5 3 3 4 4 4 4 3 3 4 7 9 11 13 9 5 5 4 5 6 6 5 6
13 12 10 12 12 12 9 7 9 9 9 10 7 8 8 9 11 11 10 11 10 9 8 8 8 8 7 6 7 6 6 5 4 5 5 5 6 5 5 4 3 3 3 4 4 4 4 4 6 9 10 12 13 8 5 4 4 4 4 4 4 4
15 15 9 7 10 10 8 9 10 10 11 11 10 10 10 12 12 11 13 13 10 9 9 8 8 8 7 7 6 5 6 6 6 4 4 4 4 4 4 4 4 3 3 3 4 6 6 5 6 8 10 11 12 8 4 5 4 5 3 4 4 3
7 9 10 11 15 13 10 10 10 12 13 13 11 11 13 14 15 15 9 6 9 9 9 9 9 9 9 9 7 6 6 5 5 5 6 4 4 5 4 5 4 5 3 3 4 4 5 5 4 6 10 12 13 12 7 5 6 6 6 5 6 5
10 14 16 15 15 11 8 8 10 13 14 13 12 16 16 16 12 7 9 8 9 10 10 9 10 10 9 8 8 7 6 6 6 6 6 6 5 5 5 5 5 4 4 2 3 3 3 4 5 6 11 12 15 15 12 7 8 7 7 7 6 7
11 13 13 12 13 11 8 9 12 14 13 12 16 19 14 11 8 8 9 10 11 10 10 10 9 9 8 7 7 8 7 6 6 7 7 6 6 7 7 5 5 5 4 3 3 3 4 4 6 5 9 12 13 13 12 7 5 4 6 5 5 6
12 14 16 15 12 11 8 10 13 14 13 15 20 15 10 7 8 9 9 9 10 10 11 10 11 10 8 8 8 8 8 7 7 7 7 8 7 7 8 7 6 6 5 4 3 3 3 4 4 8 8 12 14 14 13 9 7 7 6 7 7 7
13 14 14 14 12 9 9 12 14 14 14 20 15 6 6 7 8 9 10 10 10 10 10 10 10 9 8 9 8 8 8 9 8 7 7 7 7 7 7 6 6 6 6 6 5 4 4 3 3 6 8 10 14 14 14 10 10 10 7 5 4 3
16 16 16 14 12 10 10 11 14 16 17 17 6 10 10 10 10 11 11 11 11 11 9 9 9 9 9 9 9 9 9 9 9 8 7 8 7 7 8 7 7 7 7 6 6 5 4 3 3 2 5 8 11 13 12 11 10 9 8 4 2 3
12 13 16 17 13 11 10 12 13 17 20 9 10 10 10 11 12 12 12 10 10 10 10 11 9 9 9 9 8 8 7 9 9 8 8 7 7 7 7 7 7 6 6 6 6 5 4 3 1 2 1 3 5 7 10 10 10 10 8 6 5 7
12 15 16 18 16 11 11 13 13 17 12 8 8 9 10 11 12 11 10 11 10 10 10 12 10 9 9 10 8 7 7 8 8 8 8 8 8 8 7 7 8 7 7 7 6 5 4 4 3 3 3 2 4 4 5 6 6 8 8 6 5 5
13 15 16 18 19 12 12 12 14 13 9 8 9 10 11 11 12 13 12 12 11 10 11 11 12 12 10 10 10 10 9 9 9 10 11 12 11 11 9 8 8 8 8 7 6 6 5 5 5 5 6 6 6 6 6 6 6 6 6 6 5 5
14 16 16 19 17 12 11 13 12 10 11 10 11 12 13 12 11 9 10 10 9 9 9 9 10 10 10 10 9 8 8 9 10 9 7 4 5 7 9 7 5 4 4 6 8 8 6 5 7 8 7 7 9 9 9 8 8 7 6 7 10 7
15 16 16 17 15 11 11 11 11 10 10 10 11 12 13 12 11 10 10 10 10 9 10 9 9 9 9 9 9 8 6 4 6 5 6 6 5 5 4 7 7 7 7 6 5 6 8 9 10 10 12 12 12 13 11 9 10 9 8 11 15 8
13 13 15 16 11 10 10 9 8 8 9 10 11 13 13 12 11 10 9 10 10 12 12 10 10 10 9 9 9 8 8 6 4 2 2 4 7 8 7 6 5 7 7 7 7 4 4 5 8 14 13 12 12 12 11 12 12 13 14 16 10 5
13 14 17 13 9 10 9 9 8 9 9 10 11 11 12 13 13 12 12 12 10 11 11 10 10 9 10 9 9 9 9 8 8 4 4 4 6 6 7 8 7 9 9 7 7 7 4 7 11 13 13 13 14 12 12 13 14 15 16 17 12 7
14 11 10 9 9 9 9 10 10 9 10 11 12 13 13 13 12 12 11 10 10 11 12 11 11 11 11 12 12 11 10 10 10 11 8 4 5 7 7 7 8 10 10 10 11 11 9 8 10 13 13 13 13 13 12 13 14 15 16 15 8 6
11 10 10 9 10 10 9 11 10 10 11 12 12 13 14 14 13 12 12 12 13 13 12 12 11 12 11 11 11 11 11 11 10 10 9 9 7 5 4 3 7 10 11 10 10 10 10 10 13 13 13 14 13 13 14 13 9 13 16 11 7 7
10 10 10 10 8 8 10 11 8 8 9 10 11 12 12 12 11 10 11 15 14 12 12 11 10 11 10 10 11 11 11 11 9 9 11 11 11 11 10 8 5 6 8 7 8 8 10 12 12 12 12 13 14 15 15 13 8 8 8 6 4 6
10 11 8 7 8 9 10 11 7 9 9 10 11 12 12 12 11 10 10 11 14 11 10 11 11 10 10 11 10 9 9 8 9 10 9 8 7 7 7 6 5 3 1 7 7 9 10 10 11 11 11 12 14 15 16 9 7 6 6 5 5 5
Wind_Direction
244 241 238 236 235 233 228 227 214 220 220 217 214 218 216 213 209 211 214 211 213 213 212 211 212 214 216 219 221 216 211 219 220 219 224 225 214 208 210 204 209 210 209 211 216 213 217 219 221 218 218 215 219 218 222 218 216 218 219 216 212 220
240 238 235 233 228 231 235 229 211 213 217 210 218 227 224 213 209 208 212 213 214 217 216 217 216 216 218 219 216 215 216 221 221 221 224 224 203 213 209 203 210 208 207 208 213 216 218 218 219 217 217 214 219 220 222 219 215 221 222 222 217 216
248 247 245 249 271 265 246 217 214 220 213 219 218 216 219 213 213 204 214 208 213 215 216 216 213 217 216 219 217 217 221 225 223 223 225 208 216 210 200 208 210 207 207 209 211 216 218 218 218 215 216 217 220 220 219 216 213 217 220 218 221 218
259 268 279 268 242 252 233 229 213 223 217 222 222 226 226 218 217 208 212 207 208 213 218 217 213 214 211 214 217 219 222 224 222 222 212 212 220 196 205 210 211 207 206 209 212 215 217 218 219 216 216 220 225 227 219 216 213 219 222 214 213 204
259 267 257 237 220 225 222 219 206 215 219 219 224 216 233 217 224 214 212 208 209 217 217 213 212 204 205 211 217 220 221 224 222 207 209 213 215 204 207 212 210 209 208 211 214 214 216 218 219 216 214 216 218 220 216 212 210 215 218 218 228 238
273 276 257 240 235 229 227 221 224 225 219 213 207 216 224 218 215 208 209 214 218 217 210 213 210 201 206 211 215 218 220 217 213 201 207 212 209 211 214 211 212 210 210 215 216 216 217 217 218 218 215 216 215 217 217 211 212 215 219 222 223 216
245 240 243 244 244 239 231 231 229 224 228 217 217 223 215 212 203 199 209 206 213 214 212 216 206 207 211 216 213 219 216 213 211 206 211 210 214 216 210 216 213 214 214 217 217 216 217 217 216 220 225 228 228 226 223 219 218 220 222 223 226 216
262 267 250 249 247 241 236 229 226 227 228 231 219 217 216 225 212 219 211 209 208 215 214 217 210 215 217 216 218 219 216 217 216 216 221 210 217 213 213 211 209 211 216 216 217 215 216 214 215 219 221 222 223 226 225 223 224 222 222 221 216 197
251 237 245 239 245 242 242 241 240 231 231 240 230 224 216 215 198 217 214 210 215 215 219 214 216 214 217 217 218 215 214 216 218 217 222 210 215 212 210 211 211 214 215 219 216 217 215 215 215 220 224 226 225 227 232 234 222 218 219 218 217 235
258 249 239 240 241 247 253 247 245 241 230 239 232 221 214 204 191 192 204 206 217 219 218 215 212 210 213 210 204 203 206 204 206 214 217 204 216 215 211 208 210 215 211 219 218 218 215 216 217 217 217 213 213 212 214 210 209 208 206 197 153 135
242 242 241 244 251 251 249 252 252 252 255 250 242 218 220 190 183 203 206 209 218 221 211 209 208 199 194 189 187 190 190 192 194 196 197 198 210 210 214 211 207 210 215 220 221 222 220 218 215 208 203 207 211 209 214 220 222 206 189 161 138 137
250 255 249 245 231 237 238 239 241 236 234 241 227 219 214 160 193 200 207 214 221 213 202 202 201 200 194 191 190 188 182 181 185 176 176 188 199 207 206 206 205 202 205 210 219 226 226 223 225 227 223 216 211 194 186 175 170 180 187 169 155 162
249 251 247 244 235 229 225 226 230 229 237 239 223 217 199 168 185 205 205 218 215 202 193 195 200 191 202 203 200 204 196 193 179 176 186 201 199 198 200 182 192 195 192 198 203 209 217 228 228 221 213 211 201 199 200 199 190 169 169 175 173 169
250 242 237 235 236 231 225 226 222 205 231 226 220 207 174 178 199 205 211 214 198 196 193 193 183 188 193 180 195 191 200 196 189 205 207 197 198 207 172 177 191 194 188 188 189 192 200 209 207 194 193 206 223 211 181 158 163 166 165 165 170 152
238 232 234 235 234 229 227 216 199 214 224 218 212 155 182 188 201 206 209 205 197 198 194 183 183 186 182 187 182 182 176 184 187 195 192 204 201 164 176 199 186 196 188 174 182 200 206 216 209 194 172 166 164 151 130 133 148 159 172 171 167 160
240 225 221 224 230 230 231 196 208 222 223 201 159 182 192 191 206 207 209 199 201 194 191 188 187 190 186 174 172 167 177 184 196 192 190 176 164 180 186 176 187 180 171 178 185 199 188 183 179 170 163 162 158 152 148 157 165 172 173 176 172 165
261 268 252 225 227 228 216 215 216 228 207 189 194 195 187 196 201 210 209 203 200 189 192 194 196 196 187 183 178 179 184 188 185 180 180 176 181 182 187 185 189 189 171 161 156 160 173 189 180 170 163 162 161 159 152 158 166 170 173 172 169 169
251 253 254 248 235 231 210 221 212 206 224 196 203 189 195 193 199 211 205 210 203 197 193 190 196 195 190 190 189 191 191 185 177 178 171 153 157 153 133 131 142 162 170 168 161 157 181 197 185 171 169 165 166 160 159 167 166 166 167 167 170 168
244 247 245 247 236 223 216 220 200 207 210 198 209 190 191 191 207 211 207 212 204 198 188 183 185 189 189 186 187 193 189 182 181 167 154 148 162 160 168 172 167 164 157 158 164 169 171 172 194 179 174 173 166 158 162 159 151 159 165 170 169 170
250 257 245 241 237 225 218 207 201 199 203 212 200 193 193 196 214 214 208 210 201 190 181 179 177 182 185 186 195 188 184 181 174 171 170 165 165 171 178 151 125 128 143 155 167 167 159 187 201 184 178 172 169 159 155 154 151 148 152 151 159 162
238 246 251 250 249 239 211 205 195 194 211 209 203 200 198 204 215 210 209 208 186 177 175 173 175 177 179 188 189 183 181 179 176 159 164 163 161 159 146 140 135 129 134 159 160 166 169 182 200 192 178 173 165 152 141 146 144 148 158 152 149 136
250 262 250 237 238 231 204 201 191 203 210 212 201 200 207 209 212 213 199 169 173 176 172 174 177 178 179 182 178 186 183 169 152 160 164 165 162 152 151 147 148 151 158 154 161 183 181 177 192 194 181 173 167 159 153 159 155 175 177 173 165 164
231 238 241 240 242 239 209 192 193 211 215 211 202 213 212 211 209 179 170 169 170 177 177 176 181 181 182 177 178 173 166 170 169 163 164 160 154 145 149 154 150 141 142 148 164 175 193 189 181 196 186 177 174 168 163 176 184 180 173 175 176 185
248 249 256 252 245 236 202 189 204 219 215 210 217 220 212 207 179 163 161 170 179 177 176 178 180 177 175 172 168 170 170 174 169 170 167 162 160 159 159 155 148 147 146 154 166 182 194 193 190 178 190 183 178 177 172 166 188 163 159 164 194 198
248 245 243 246 239 231 203 189 209 220 216 216 223 215 200 180 161 163 165 168 176 182 179 177 174 174 169 173 175 170 172 169 168 170 166 162 161 161 160 160 157 153 157 160 173 186 196 197 201 187 183 185 178 178 179 169 159 150 163 175 194 207
251 253 248 244 239 221 200 188 213 219 219 227 222 178 168 156 164 158 163 173 179 178 179 176 173 166 165 167 169 175 171 173 173 168 172 169 164 165 165 166 163 163 169 177 181 192 201 207 203 204 192 184 182 180 179 154 153 161 175 176 193 180
247 249 254 249 238 219 201 200 208 220 222 228 164 186 172 168 163 166 172 178 179 178 174 166 171 170 166 170 172 179 178 173 171 170 177 169 172 173 172 173 173 177 179 178 186 189 192 200 200 211 208 191 182 179 173 159 152 160 147 149 92 115
254 258 258 258 242 223 209 207 205 217 227 202 180 183 170 166 168 172 179 174 173 173 164 165 169 171 172 170 179 184 183 178 177 174 171 176 177 176 175 173 177 181 181 185 183 183 181 175 163 213 214 195 177 172 169 160 158 157 145 121 135 144
253 254 252 255 250 222 217 210 212 220 219 179 177 167 173 169 172 171 168 173 169 168 168 172 174 173 175 176 178 182 180 179 179 175 175 182 179 178 179 174 179 182 183 184 176 164 155 157 172 177 175 163 158 150 151 146 143 136 129 125 131 131
249 252 254 254 252 230 220 215 218 215 199 179 165 166 166 174 176 175 177 174 172 173 177 180 177 174 177 182 177 180 184 188 186 185 187 186 183 176 180 177 184 188 183 177 163 155 159 173 180 183 176 176 164 158 154 151 148 159 164 148 140 135
258 252 250 253 252 238 223 222 219 201 189 180 172 166 169 176 176 171 169 169 170 177 180 181 176 182 180 180 185 194 195 188 189 191 188 194 178 179 171 171 183 188 185 168 166 161 169 180 197 205 187 180 173 165 161 166 172 167 166 153 135 116
252 257 251 251 250 241 226 223 215 198 189 172 171 168 171 171 168 170 173 174 177 176 176 181 181 184 181 180 181 175 179 189 185 188 178 180 178 168 156 166 178 178 168 174 184 179 172 189 206 176 165 171 172 171 167 163 160 155 142 149 146 132
255 251 253 251 247 243 232 225 210 192 182 176 175 177 176 165 168 175 175 175 185 183 182 179 181 184 184 180 174 174 170 158 153 139 159 178 173 166 148 145 114 156 176 170 160 163 123 123 142 166 174 170 169 163 159 155 154 149 150 146 129 115
261 251 250 253 240 234 223 218 204 192 187 179 178 179 175 175 171 178 184 186 183 176 179 181 181 180 179 177 174 174 172 170 161 129 68 93 148 154 148 142 141 153 159 163 150 146 137 158 164 163 167 172 173 168 156 154 153 154 154 158 146 134
260 259 255 250 238 229 221 215 208 189 183 182 180 180 180 183 184 181 179 179 176 176 179 177 180 183 184 180 177 177 176 175 175 167 150 72 87 121 136 147 153 158 157 155 163 163 162 164 164 162 162 168 173 166 156 150 155 158 160 153 144 142
262 257 250 241 232 226 220 221 209 191 190 183 182 184 186 185 188 182 176 176 177 175 180 184 184 184 186 185 183 182 180 182 177 172 159 150 137 95 72 117 164 165 159 158 160 161 153 150 159 161 162 164 161 156 151 151 153 161 164 158 157 150
254 253 243 232 222 217 219 227 213 188 185 185 183 185 188 186 183 180 182 177 174 179 182 184 183 185 183 181 183 182 183 180 176 164 165 169 167 168 169 165 161 171 163 159 161 158 154 157 157 156 154 155 156 158 157 146 145 162 173 154 131 154
249 249 239 217 214 214 218 225 193 176 181 185 186 189 189 186 183 179 177 179 180 179 180 181 183 183 184 184 186 183 177 166 162 167 168 160 150 150 146 140 153 138 143 155 159 159 156 155 156 154 153 152 155 158 157 149 155 155 165 158 148 154